Volver al catálogo

THOR ABLESTAR DEB

ActivoLEO
NORAD 3740·DEBRIS·🇺🇸 United States

Lanzado Jun 29, 1961 desde Cape Canaveral Space Force Station

Loading…

Próximos Pases (próximas 24 horas)

TLE

ActualizadoSource: Space-Track

Época: Sep 13, 2026, 22:07 UTC

1 03740U 61015JB  26256.92192993 -.00000098  00000-0 -69565-5 0  9997
2 03740  66.3362 179.8287 0089679 325.6053  33.9247 14.12439380334561

Sigue THOR ABLESTAR DEB en tiempo real con AllMySat

Download on the App Store